1491735600.02,30027,13.13,74168.8,15.23,-26.07,-27.45,0,*49
1491735601.27,30028,13.13,74170.5,15.17,-26.55,-27.89,0,*46
1491735602.49,30029,13.13,74168.8,15.13,-26.23,-27.39,0,*49
1491735603.72,30030,13.13,74172.3,15.13,-23.79,-25.03,0,*40
1491735604.92,30031,13.13,74168.3,15.13,-23.13,-24.47,0,*4C
1491735606.15,30032,13.13,74170.8,15.11,-22.93,-24.05,0,*42
1491735607.42,30033,13.13,74170.5,15.13,-24.21,-25.71,0,*4C
1491735608.64,30034,13.13,74168.5,15.09,-26.13,-27.51,0,*43
1491735609.88,30035,13.13,74170.8,15.09,-26.93,-28.15,0,*45
1491735611.1,30036,13.13,74168.0,15.05,-23.29,-24.35,0,*40
1491735612.34,30037,13.13,74170.3,15.05,-21.83,-22.97,0,*4D
1491735613.54,30038,13.13,74168.8,15.05,-21.73,-22.83,0,*48
1491735614.77,30039,13.13,74170.3,15.05,-22.31,-23.59,0,*4A
1491735616.02,30040,13.13,74170.8,15.07,-22.07,-23.19,0,*47
1491735617.3,30041,13.13,74168.3,15.07,-23.03,-24.21,0,*4F
1491735618.53,30042,13.13,74168.8,15.07,-23.89,-25.19,0,*44
1491735619.74,30043,13.13,74166.8,15.05,-25.61,-27.03,0,*4E
1491735620.98,30044,13.13,74170.5,15.01,-26.81,-28.15,0,*48
1491735622.18,30045,13.13,74168.0,15.01,-26.07,-27.55,0,*4C
1491735623.41,30046,13.13,74170.3,14.95,-26.87,-28.15,0,*40
1491735624.67,30047,13.13,74168.5,14.91,-25.91,-27.35,0,*4C
1491735625.9,30048,13.13,74168.0,14.91,-27.07,-28.53,0,*41
1491735627.16,30049,13.13,74168.0,14.87,-26.97,-28.37,0,*4D
1491735628.45,30050,13.13,74170.3,14.83,-26.93,-28.25,0,*46
1491735629.73,30051,13.13,74170.5,14.79,-26.77,-27.99,0,*40
1491735631.01,30052,13.13,74170.0,14.75,-25.55,-26.55,0,*4D
1491735632.26,30053,13.13,74170.5,14.75,-23.85,-25.23,0,*45
1491735633.54,30054,13.13,74172.5,14.75,-22.73,-23.85,0,*40
1491735634.78,30055,13.13,74168.5,14.77,-21.17,-22.47,0,*4D
1491735636.01,30056,13.13,74172.8,14.77,-22.57,-23.69,0,*44
1491735637.21,30057,13.13,74164.5,14.77,-23.09,-24.35,0,*41
1491735638.44,30058,13.13,74168.5,14.77,-22.11,-23.19,0,*4F
1491735639.67,30059,13.13,74170.3,14.77,-23.69,-24.77,0,*4F
1491735640.88,30060,13.13,74170.3,14.77,-24.77,-26.03,0,*4C
1491735642.13,30061,13.13,74166.8,14.75,-24.93,-26.33,0,*46
1491735643.36,30062,13.13,74170.5,14.71,-25.61,-27.03,0,*4F
1491735644.56,30063,13.13,74168.5,14.69,-25.23,-26.45,0,*42
1491735645.76,30064,13.13,74170.0,14.65,-25.35,-26.65,0,*4C
1491735646.95,30065,13.13,74168.0,14.65,-25.35,-26.65,0,*4D
1491735648.18,30066,13.13,74168.8,14.65,-23.65,-24.77,0,*4C
1491735649.47,30067,13.13,74170.0,14.63,-24.21,-25.55,0,*4D
1491735650.73,30068,13.13,74166.8,14.61,-24.15,-25.55,0,*47
1491735651.96,30069,13.13,74168.3,14.61,-25.03,-26.23,0,*42
1491735653.19,30070,13.13,74170.8,14.61,-23.19,-24.57,0,*46
1491735654.42,30071,13.13,74170.0,14.61,-22.21,-23.43,0,*4F
1491735655.68,30072,13.13,74170.0,14.61,-22.31,-23.49,0,*47
1491735656.9,30073,13.13,74168.3,14.63,-23.13,-24.51,0,*4B
1491735658.14,30074,13.13,74166.8,14.61,-23.95,-25.13,0,*47
1491735659.4,30075,13.13,74170.5,14.59,-21.67,-22.67,0,*46
1491735660.65,30076,13.13,74168.0,14.61,-20.79,-21.87,0,*4D
1491735661.91,30077,13.13,74168.5,14.63,-19.31,-20.29,0,*4D
1491735663.16,30078,13.13,74168.8,14.65,-21.03,-22.21,0,*44
1491735664.41,30079,13.13,74174.8,14.67,-20.89,-21.97,0,*4A
1491735665.62,30080,13.13,74170.5,14.69,-19.91,-21.13,0,*4D
1491735666.9,30081,13.13,74168.5,14.71,-19.85,-20.83,0,*48
1491735668.12,30082,13.13,74170.3,14.75,-21.17,-22.41,0,*43
1491735669.37,30083,13.13,74168.8,14.75,-22.93,-24.11,0,*4E
1491735670.62,30084,13.13,74170.5,14.75,-23.23,-24.51,0,*47
1491735671.88,30085,13.13,74168.5,14.71,-22.31,-23.43,0,*44
1491735673.11,30086,13.13,74170.8,14.69,-23.49,-24.77,0,*40
1491735674.32,30087,13.13,74168.8,14.69,-23.79,-24.97,0,*4C
1491735675.55,30088,13.13,74174.3,14.69,-23.33,-24.57,0,*41
1491735676.78,30089,13.13,74174.0,14.69,-23.65,-24.93,0,*4B
1491735678.01,30090,13.13,74174.0,14.65,-22.57,-23.65,0,*41
1491735679.26,30091,13.13,74170.5,14.67,-22.27,-23.49,0,*4B
1491735680.49,30092,13.13,74172.5,14.65,-23.65,-25.19,0,*4E
1491735681.74,30093,13.13,74170.5,14.63,-24.97,-26.33,0,*48
1491735683.0,30094,13.13,74172.8,14.63,-24.51,-25.81,0,*4F
1491735684.21,30095,13.13,74170.5,14.61,-24.61,-25.91,0,*4E
1491735685.46,30096,13.13,74172.0,14.57,-24.15,-25.45,0,*42
1491735686.69,30097,13.13,74174.0,14.57,-23.23,-24.47,0,*42
1491735687.91,30098,13.13,74168.5,14.57,-22.87,-23.99,0,*46
1491735689.15,30099,13.13,74170.3,14.57,-24.61,-25.97,0,*41
1491735690.36,30100,13.13,74168.3,14.53,-24.35,-25.65,0,*48
1491735691.62,30101,13.13,74170.0,14.53,-24.87,-26.33,0,*40
1491735692.83,30102,13.13,74170.3,14.47,-24.47,-25.87,0,*46
1491735694.1,30103,13.13,74170.5,14.49,-24.71,-26.03,0,*43
1491735695.36,30104,13.13,74170.3,14.45,-24.61,-25.97,0,*47
1491735696.61,30105,13.13,74168.5,14.43,-24.87,-26.17,0,*43
1491735697.85,30106,13.13,74168.5,14.39,-24.71,-26.07,0,*45
1491735699.07,30107,13.13,74168.3,14.39,-25.35,-26.71,0,*44
1491735700.31,30108,13.13,74172.5,14.37,-25.09,-26.39,0,*46
1491735701.54,30109,13.13,74170.3,14.35,-24.57,-26.13,0,*47
1491735702.77,30110,13.13,74170.8,14.35,-23.75,-25.03,0,*4A
1491735704.06,30111,13.13,74170.5,14.33,-24.83,-26.17,0,*45
1491735705.35,30112,13.13,74170.0,14.33,-24.71,-26.17,0,*4B
1491735706.59,30113,13.13,74172.0,14.31,-24.57,-25.75,0,*4B
1491735707.83,30114,13.13,74168.3,14.31,-24.21,-25.49,0,*42
1491735709.09,30115,13.13,74170.8,14.25,-23.99,-25.13,0,*4D
1491735710.3,30116,13.13,74170.0,14.23,-24.51,-25.87,0,*46
1491735711.56,30117,13.13,74170.8,14.25,-23.99,-25.23,0,*4C
1491735712.79,30118,13.13,74172.5,14.23,-24.05,-25.29,0,*4D
1491735714.05,30119,13.13,74168.0,14.21,-23.29,-24.57,0,*4F
1491735715.31,30120,13.13,74170.5,14.21,-23.95,-25.23,0,*40
1491735716.6,30121,13.13,74168.8,14.21,-23.53,-24.71,0,*4D
1491735717.85,30122,13.13,74172.3,14.21,-23.39,-24.41,0,*41
1491735719.11,30123,13.13,74170.8,14.21,-21.83,-22.97,0,*4E
1491735720.37,30124,13.13,74170.5,14.21,-21.57,-22.63,0,*4B
1491735721.61,30125,13.13,74170.8,14.23,-21.33,-22.53,0,*49
1491735722.81,30126,13.13,74174.0,14.23,-21.43,-22.57,0,*49
1491735724.07,30127,13.13,74170.8,14.23,-21.67,-23.19,0,*45
1491735725.3,30128,13.13,74172.0,14.23,-22.87,-24.21,0,*4B
1491735726.56,30129,13.13,74170.3,14.25,-21.87,-22.97,0,*44
1491735727.79,30130,13.13,74172.5,14.25,-20.43,-21.43,0,*4F
1491735729.05,30131,13.13,74170.3,14.25,-22.37,-23.65,0,*49
1491735730.33,30132,13.13,74170.5,14.25,-23.19,-24.41,0,*46
1491735731.56,30133,13.13,74168.3,14.25,-23.79,-24.97,0,*4A
1491735732.83,30134,13.13,74170.8,14.25,-22.73,-23.99,0,*4F
1491735734.09,30135,13.13,74168.8,14.25,-23.03,-24.47,0,*4C
1491735735.29,30136,13.13,74174.3,14.23,-22.93,-23.89,0,*44
1491735736.52,30137,13.13,74170.8,14.21,-22.67,-23.79,0,*43
1491735737.75,30138,13.13,74172.0,14.23,-22.73,-23.89,0,*44
1491735739.01,30139,13.13,74172.3,14.21,-23.13,-24.41,0,*43
1491735740.27,30140,13.13,74170.8,14.21,-22.47,-23.59,0,*43
1491735741.49,30141,13.13,74170.5,14.21,-22.87,-24.05,0,*40
1491735742.77,30142,13.13,74172.5,14.21,-23.65,-24.67,0,*4A
1491735744.03,30143,13.13,74174.3,14.21,-23.59,-24.87,0,*4A
1491735745.29,30144,13.13,74172.8,14.21,-22.77,-23.89,0,*49
1491735746.54,30145,13.13,74172.5,14.19,-23.23,-24.35,0,*43
1491735747.79,30146,13.13,74168.0,14.17,-23.53,-24.67,0,*4E
1491735749.02,30147,13.13,74174.5,14.17,-22.97,-24.25,0,*40
1491735750.26,30148,13.13,74174.3,14.19,-22.83,-24.15,0,*47
1491735751.49,30149,13.13,74170.8,14.17,-22.21,-23.43,0,*44
1491735752.7,30150,13.13,74174.0,14.17,-22.37,-23.59,0,*40
1491735753.94,30151,13.13,74172.8,14.19,-22.83,-23.95,0,*40
1491735755.15,30152,13.13,74172.8,14.17,-22.07,-23.29,0,*46
1491735756.36,30153,13.13,74172.0,14.17,-21.73,-22.87,0,*42
1491735757.58,30154,13.13,74170.8,14.17,-22.87,-24.15,0,*40
1491735758.8,30155,13.13,74170.0,14.17,-23.49,-24.61,0,*41
1491735760.08,30156,13.13,74172.0,14.15,-23.03,-24.15,0,*4D
1491735761.31,30157,13.13,74168.5,14.15,-21.93,-22.93,0,*4F
1491735762.51,30158,13.13,74170.0,14.13,-22.27,-23.39,0,*4B
1491735763.76,30159,13.13,74172.5,14.15,-22.11,-23.33,0,*43
1491735765.04,30160,13.13,74172.5,14.15,-23.03,-24.21,0,*4F
1491735766.26,30161,13.13,74170.8,14.13,-23.69,-24.77,0,*47
1491735767.46,30162,13.13,74172.3,14.13,-23.89,-25.19,0,*43
1491735768.71,30163,13.19,74174.8,14.11,-25.03,-26.39,0,*45
1491735769.97,30164,13.19,74174.3,14.09,-24.11,-25.55,0,*40
1491735771.2,30165,13.13,74174.5,14.09,-24.11,-25.39,0,*4B
1491735772.45,30166,13.13,74172.0,14.03,-22.87,-23.85,0,*4A
1491735773.68,30167,13.13,74174.5,14.05,-21.87,-22.97,0,*4C
1491735774.88,30168,13.13,74172.5,14.09,-21.47,-22.57,0,*4F
1491735776.11,30169,13.13,74172.3,14.05,-21.09,-22.17,0,*4C
1491735777.35,30170,13.13,74174.0,14.05,-21.53,-22.63,0,*48
1491735778.55,30171,13.13,74170.8,14.09,-21.63,-22.93,0,*49
1491735779.76,30172,13.13,74170.3,14.09,-21.73,-22.83,0,*4A
1491735780.96,30173,13.13,74170.8,14.09,-21.73,-22.83,0,*4B
1491735782.21,30174,13.13,74174.8,14.11,-21.67,-22.83,0,*40
1491735783.49,30175,13.13,74172.8,14.11,-21.33,-22.47,0,*48
1491735784.77,30176,13.13,74168.3,14.11,-21.23,-22.47,0,*4A
1491735786.02,30177,13.13,74170.5,14.11,-21.97,-22.97,0,*49
1491735787.25,30178,13.13,74172.8,14.13,-21.83,-22.93,0,*45
1491735788.45,30179,13.19,74174.3,14.13,-21.47,-22.57,0,*44
1491735789.7,30180,13.13,74170.8,14.15,-21.03,-22.11,0,*46
1491735790.96,30181,13.13,74174.3,14.15,-21.67,-22.87,0,*4A
1491735792.21,30182,13.19,74174.0,14.15,-21.27,-22.37,0,*46
1491735793.44,30183,13.13,74170.5,14.15,-21.47,-22.57,0,*47
1491735794.66,30184,13.19,74174.5,14.15,-21.43,-22.53,0,*40
1491735795.92,30185,13.13,74172.3,14.17,-21.23,-22.31,0,*41
1491735797.15,30186,13.13,74170.8,14.17,-22.31,-23.43,0,*46
1491735798.36,30187,13.13,74166.8,14.17,-21.43,-22.63,0,*42
1491735799.6,30188,13.19,74172.8,14.19,-21.57,-22.83,0,*48
1491735800.8,30189,13.13,74170.3,14.17,-21.63,-22.87,0,*44
1491735802.01,30190,13.13,74172.3,14.17,-22.37,-23.59,0,*4C
1491735803.23,30191,13.13,74172.8,14.17,-23.65,-24.77,0,*40
1491735804.51,30192,13.13,74172.0,14.15,-23.65,-24.67,0,*40
1491735805.73,30193,13.13,74170.3,14.13,-23.33,-24.61,0,*42
1491735806.98,30194,13.19,74172.0,14.13,-23.69,-24.87,0,*42
1491735808.22,30195,13.13,74172.5,14.11,-22.97,-24.11,0,*4E
1491735809.45,30196,13.13,74174.3,14.09,-23.13,-24.41,0,*4C
1491735810.67,30197,13.13,74170.8,14.11,-22.11,-23.39,0,*4F
1491735811.91,30198,13.13,74168.0,14.11,-22.83,-23.95,0,*4D
1491735813.11,30199,13.13,74170.0,14.09,-22.57,-23.59,0,*4C
1491735814.31,30200,13.13,74170.3,14.05,-22.03,-23.13,0,*4C
1491735815.52,30201,13.13,74172.8,14.05,-22.37,-23.43,0,*4F
1491735816.74,30202,13.13,74174.0,14.05,-22.07,-23.29,0,*43
1491735817.95,30203,13.13,74170.3,14.05,-21.93,-23.13,0,*45
1491735819.18,30204,13.19,74174.5,14.05,-21.87,-22.87,0,*4B
1491735820.43,30205,13.13,74170.8,14.05,-21.57,-22.77,0,*48
1491735821.64,30206,13.13,74170.3,14.05,-21.43,-22.63,0,*4B
1491735822.87,30207,13.13,74170.3,14.09,-21.87,-22.93,0,*41
1491735824.15,30208,13.13,74170.0,14.11,-21.23,-22.17,0,*45
1491735825.37,30209,13.19,74172.5,14.09,-21.63,-22.73,0,*4B
1491735826.6,30210,13.13,74168.8,14.09,-22.93,-24.25,0,*4A
1491735827.84,30211,13.13,74168.3,14.09,-24.51,-25.55,0,*45
1491735829.1,30212,13.13,74172.8,14.05,-23.33,-24.71,0,*4E
1491735830.33,30213,13.13,74172.5,14.05,-23.75,-24.87,0,*44
1491735831.58,30214,13.19,74174.0,14.03,-23.99,-25.19,0,*41
1491735832.82,30215,13.13,74168.8,14.01,-23.09,-24.21,0,*41
1491735834.09,30216,13.13,74174.0,13.99,-23.69,-24.67,0,*40
1491735835.33,30217,13.19,74174.3,13.99,-22.87,-24.11,0,*41
1491735836.56,30218,13.19,74174.3,13.99,-22.87,-24.05,0,*4B
1491735837.79,30219,13.19,74174.5,13.97,-21.87,-22.97,0,*4A
1491735839.03,30220,13.19,74176.8,13.95,-21.13,-21.93,0,*48
1491735840.25,30221,13.13,74170.5,13.97,-22.03,-23.03,0,*42
1491735841.48,30222,13.13,74168.3,13.97,-22.07,-23.19,0,*4E
1491735842.71,30223,13.13,74170.5,13.99,-22.03,-23.09,0,*44
1491735843.94,30224,13.19,74172.8,13.99,-22.11,-22.93,0,*42
1491735845.15,30225,13.19,74172.0,13.97,-21.73,-22.93,0,*4A
1491735846.38,30226,13.19,74174.0,13.97,-23.19,-24.31,0,*49
1491735847.61,30227,13.19,74170.8,13.95,-23.89,-25.13,0,*42
1491735848.86,30228,13.13,74172.0,13.95,-23.13,-24.15,0,*49
1491735850.1,30229,13.13,74172.0,13.95,-21.93,-22.93,0,*4A
1491735851.33,30230,13.13,74170.8,13.95,-22.07,-23.43,0,*40
1491735852.54,30231,13.13,74172.0,13.93,-22.97,-24.05,0,*4B
1491735853.76,30232,13.19,74174.3,13.93,-23.69,-24.77,0,*4D
1491735855.0,30233,13.19,74174.0,13.91,-23.75,-24.97,0,*4D
1491735856.27,30234,13.13,74172.0,13.91,-22.73,-23.69,0,*4B
1491735857.55,30235,13.19,74176.0,13.91,-21.97,-23.03,0,*4F
1491735858.83,30236,13.19,74174.3,13.91,-22.47,-23.53,0,*47
1491735860.04,30237,13.13,74170.5,13.89,-22.03,-23.13,0,*4B
1491735861.29,30238,13.13,74168.3,13.91,-21.47,-22.73,0,*49
1491735862.55,30239,13.19,74172.3,13.91,-22.47,-23.75,0,*4C
1491735863.8,30240,13.13,74170.0,13.91,-22.87,-24.11,0,*4B
1491735865.05,30241,13.19,74172.3,13.87,-23.49,-24.71,0,*48
1491735866.29,30242,13.13,74168.0,13.87,-23.75,-24.87,0,*4D
1491735867.54,30243,13.13,74170.3,13.85,-22.67,-23.69,0,*4B
1491735868.77,30244,13.13,74172.5,13.85,-21.13,-22.11,0,*42
1491735870.02,30245,13.19,74172.5,13.87,-22.21,-23.33,0,*42
1491735871.27,30246,13.19,74172.8,13.87,-22.47,-23.65,0,*42
1491735872.48,30247,13.19,74174.8,13.87,-23.43,-24.57,0,*40
1491735873.73,30248,13.19,74172.3,13.85,-22.97,-23.99,0,*40
1491735874.98,30249,13.13,74172.5,13.81,-23.39,-24.41,0,*42
1491735876.26,30250,13.13,74172.5,13.81,-23.03,-24.15,0,*42
1491735877.53,30251,13.19,74172.5,13.81,-22.73,-23.85,0,*4B
1491735878.73,30252,13.19,74174.8,13.79,-23.39,-24.57,0,*48
1491735880.0,30253,13.13,74168.3,13.77,-23.75,-24.87,0,*42
1491735881.23,30254,13.13,74170.5,13.77,-22.97,-24.05,0,*42
1491735882.49,30255,13.19,74174.3,13.77,-23.59,-24.71,0,*43
1491735883.74,30256,13.13,74170.5,13.73,-22.63,-23.95,0,*41
1491735885.01,30257,13.13,74170.3,13.77,-21.87,-23.09,0,*48
1491735886.24,30258,13.19,74174.8,13.75,-21.67,-22.83,0,*48
1491735887.51,30259,13.19,74174.8,13.75,-21.23,-22.17,0,*44
1491735888.77,30260,13.19,74174.3,13.77,-22.47,-23.75,0,*48
1491735890.0,30261,13.19,74174.5,13.75,-22.93,-23.95,0,*4C
1491735891.21,30262,13.19,74174.5,13.75,-23.13,-24.31,0,*4F
1491735892.47,30263,13.13,74174.3,13.75,-23.29,-24.41,0,*40
1491735893.72,30264,13.19,74174.3,13.73,-22.83,-23.95,0,*4E
1491735895.01,30265,13.13,74168.8,13.73,-23.53,-24.67,0,*49
1491735896.24,30266,13.19,74174.5,13.71,-23.53,-24.51,0,*4D
1491735897.43,30267,13.19,74174.3,13.71,-22.63,-23.89,0,*4C
1491735898.69,30268,13.19,74172.0,13.69,-21.83,-22.93,0,*4D
1491735899.94,30269,13.19,74176.3,13.69,-19.95,-20.89,0,*49
1491735901.2,30270,13.13,74168.8,13.73,-19.91,-20.83,0,*44
1491735902.48,30271,13.19,74172.8,13.77,-19.23,-20.15,0,*47
1491735903.72,30272,13.19,74174.8,13.75,-21.09,-22.17,0,*45
1491735904.92,30273,13.19,74174.3,13.75,-22.63,-23.89,0,*4D
1491735906.15,30274,13.19,74172.0,13.75,-22.31,-23.59,0,*40
1491735907.39,30275,13.19,74172.3,13.75,-22.97,-24.21,0,*45
1491735908.65,30276,13.19,74174.3,13.73,-22.53,-23.65,0,*4F
1491735909.88,30277,13.13,74168.0,13.73,-23.39,-24.61,0,*40
1491735911.12,30278,13.19,74174.3,13.71,-23.43,-24.71,0,*41
1491735912.38,30279,13.13,74168.5,13.69,-23.75,-24.83,0,*41
1491735913.64,30280,13.19,74174.5,13.69,-23.99,-25.19,0,*47
1491735914.9,30281,13.19,74174.5,13.65,-23.99,-25.23,0,*43
1491735916.15,30282,13.19,74174.3,13.65,-22.67,-23.69,0,*48
1491735917.36,30283,13.19,74174.0,13.67,-22.67,-23.89,0,*45
1491735918.61,30284,13.19,74172.3,13.65,-21.43,-22.31,0,*47
1491735919.9,30285,13.19,74174.5,13.65,-22.31,-23.49,0,*4E
1491735921.13,30286,13.19,74172.5,13.65,-23.79,-24.93,0,*40
1491735922.36,30287,13.19,74174.0,13.65,-22.37,-23.79,0,*49
1491735923.57,30288,13.19,74176.3,13.63,-21.73,-22.83,0,*47
1491735924.78,30289,13.19,74174.5,13.63,-21.77,-22.83,0,*42
1491735925.98,30290,13.19,74174.8,13.63,-22.03,-23.13,0,*42
1491735927.22,30291,13.19,74172.0,13.63,-21.87,-22.97,0,*41
1491735928.44,30292,13.19,74172.3,13.63,-20.79,-21.63,0,*4A
1491735929.68,30293,13.19,74172.5,13.67,-20.49,-21.43,0,*4E
1491735930.91,30294,13.19,74176.5,13.67,-20.73,-21.83,0,*4C
1491735932.15,30295,13.19,74172.0,13.69,-19.37,-20.43,0,*44
1491735933.38,30296,13.19,74172.0,13.71,-20.39,-21.53,0,*4A
1491735934.63,30297,13.19,74174.0,13.71,-20.53,-21.53,0,*47
1491735935.85,30298,13.19,74174.8,13.71,-22.73,-23.89,0,*4D
1491735937.08,30299,13.19,74172.0,13.71,-23.43,-24.67,0,*49
1491735938.36,30300,13.13,74172.3,13.69,-23.33,-24.41,0,*42
1491735939.59,30301,13.19,74172.5,13.67,-22.63,-23.49,0,*46
1491735940.83,30302,13.19,74172.5,13.67,-21.97,-23.09,0,*49
1491735942.06,30303,13.19,74174.5,13.67,-22.27,-23.29,0,*42
1491735943.26,30304,13.19,74174.3,13.67,-22.67,-23.79,0,*44
1491735944.5,30305,13.19,74174.0,13.67,-22.11,-23.23,0,*4B
1491735945.76,30306,13.19,74172.0,13.65,-22.37,-23.49,0,*42
1491735947.04,30307,13.19,74172.8,13.65,-21.87,-22.73,0,*43
1491735948.27,30308,13.19,74172.0,13.65,-21.39,-22.37,0,*49
1491735949.51,30309,13.19,74174.0,13.67,-21.73,-23.03,0,*42
1491735950.74,30310,13.19,74172.8,13.65,-21.43,-22.37,0,*4D
1491735951.99,30311,13.19,74174.5,13.65,-21.63,-22.73,0,*4E
1491735953.22,30312,13.19,74172.8,13.65,-21.73,-22.67,0,*49
1491735954.45,30313,13.19,74170.3,13.65,-22.03,-23.13,0,*4E
1491735955.71,30314,13.19,74176.0,13.65,-22.57,-23.69,0,*45
1491735956.97,30315,13.19,74170.8,13.65,-22.57,-23.69,0,*44
1491735958.23,30316,13.19,74168.8,13.65,-23.03,-24.31,0,*4D
1491735959.46,30317,13.19,74172.5,13.63,-22.31,-23.43,0,*48
1491735960.69,30318,13.19,74174.0,13.63,-22.41,-23.49,0,*4A
1491735961.9,30319,13.19,74168.5,13.59,-22.27,-23.39,0,*45
1491735963.11,30320,13.19,74172.0,13.63,-21.93,-22.97,0,*4F
1491735964.34,30321,13.19,74174.0,13.59,-22.57,-23.53,0,*45
1491735965.55,30322,13.19,74174.8,13.59,-21.77,-22.87,0,*4F
1491735966.77,30323,13.19,74172.8,13.59,-22.07,-23.19,0,*4C
1491735968.0,30324,13.19,74172.0,13.63,-22.27,-23.33,0,*48
1491735969.26,30325,13.19,74172.5,13.63,-22.31,-23.33,0,*4E
1491735970.49,30326,13.19,74176.5,13.57,-22.41,-23.59,0,*41
1491735971.74,30327,13.19,74172.8,13.57,-20.63,-21.57,0,*4E
1491735972.97,30328,13.19,74172.5,13.59,-20.73,-21.67,0,*4D
1491735974.23,30329,13.19,74174.5,13.63,-21.27,-22.21,0,*44
1491735975.46,30330,13.19,74172.0,13.59,-22.41,-23.53,0,*42
1491735976.68,30331,13.19,74172.5,13.59,-22.07,-23.03,0,*44
1491735977.93,30332,13.19,74174.3,13.63,-20.49,-21.57,0,*45
1491735979.14,30333,13.19,74168.3,13.59,-21.13,-22.07,0,*45
1491735980.37,30334,13.19,74174.5,13.59,-21.83,-22.87,0,*43
1491735981.6,30335,13.19,74174.5,13.59,-21.33,-22.27,0,*43
1491735982.83,30336,13.19,74174.8,13.63,-21.63,-22.73,0,*4D
1491735984.05,30337,13.19,74174.5,13.65,-21.43,-22.41,0,*49
1491735985.26,30338,13.19,74176.3,13.63,-20.93,-21.93,0,*40
1491735986.49,30339,13.19,74174.3,13.63,-20.49,-21.43,0,*4B
1491735987.73,30340,13.19,74178.0,13.67,-20.25,-21.23,0,*4D
1491735988.99,30341,13.19,74172.8,13.69,-20.83,-21.77,0,*4F
1491735990.23,30342,13.19,74172.3,13.67,-21.87,-22.97,0,*4A
1491735991.51,30343,13.19,74178.3,13.69,-20.83,-21.83,0,*46
1491735992.72,30344,13.19,74174.0,13.67,-20.59,-21.43,0,*44
1491735993.96,30345,13.19,74176.3,13.67,-21.33,-22.63,0,*49
1491735995.17,30346,13.19,74174.8,13.67,-21.73,-22.83,0,*40
1491735996.43,30347,13.19,74176.0,13.67,-21.33,-22.31,0,*4C
1491735997.66,30348,13.19,74174.8,13.67,-22.03,-23.29,0,*4B
1491735998.88,30349,13.19,74174.5,13.67,-22.27,-23.29,0,*4C
1491736000.11,30350,13.19,74178.3,13.65,-22.07,-23.13,0,*4D
1491736001.37,30351,13.19,74174.8,13.65,-22.53,-23.49,0,*42
1491736002.61,30352,13.19,74172.0,13.65,-21.77,-22.87,0,*47
1491736003.9,30353,13.19,74176.0,13.65,-21.23,-22.17,0,*4E
1491736005.13,30354,13.19,74174.3,13.67,-20.89,-21.97,0,*41
1491736006.39,30355,13.19,74168.5,13.65,-20.53,-21.47,0,*48
1491736007.65,30356,13.19,74174.0,13.65,-21.09,-22.17,0,*43
1491736008.89,30357,13.19,74174.5,13.67,-20.63,-21.67,0,*49
1491736010.1,30358,13.19,74174.5,13.67,-20.89,-21.73,0,*47
1491736011.35,30359,13.19,74176.0,13.69,-19.81,-20.73,0,*4B
1491736012.59,30360,13.19,74172.8,13.69,-19.37,-20.43,0,*4F
1491736013.89,30361,13.19,74172.0,13.73,-19.61,-20.49,0,*4C
1491736015.15,30362,13.19,74172.5,13.73,-20.93,-21.87,0,*4B
1491736016.36,30363,13.19,74174.0,13.75,-20.43,-21.43,0,*49
1491736017.59,30364,13.19,74172.0,13.75,-20.49,-21.43,0,*44
1491736018.85,30365,13.19,74178.3,13.73,-21.57,-22.83,0,*42
1491736020.11,30366,13.19,74170.3,13.73,-22.87,-24.11,0,*42
1491736021.37,30367,13.19,74174.3,13.73,-21.87,-22.67,0,*47
1491736022.58,30368,13.19,74172.5,13.71,-22.41,-23.43,0,*44
1491736023.8,30369,13.19,74176.3,13.71,-22.07,-23.19,0,*48
1491736025.03,30370,13.19,74174.5,13.71,-22.31,-23.43,0,*4A
1491736026.29,30371,13.19,74172.5,13.69,-21.93,-23.03,0,*4D
1491736027.55,30372,13.19,74174.0,13.71,-21.67,-22.77,0,*4E
1491736028.81,30373,13.19,74174.8,13.69,-22.07,-23.23,0,*43
1491736030.01,30374,13.19,74172.3,13.71,-20.69,-21.47,0,*47
1491736031.24,30375,13.19,74176.3,13.71,-20.43,-21.33,0,*4D
1491736032.45,30376,13.19,74174.0,13.71,-20.59,-21.47,0,*46
1491736033.71,30377,13.19,74176.0,13.73,-20.53,-21.63,0,*49
1491736034.97,30378,13.19,74172.0,13.73,-20.53,-21.47,0,*40
1491736036.21,30379,13.19,74176.5,13.75,-20.59,-21.53,0,*48
1491736037.43,30380,13.19,74176.3,13.75,-19.81,-20.73,0,*42
1491736038.67,30381,13.19,74174.0,13.75,-20.63,-21.57,0,*42
1491736039.93,30382,13.19,74172.8,13.75,-22.17,-23.29,0,*4B
1491736041.17,30383,13.19,74172.5,13.75,-21.53,-22.67,0,*42
1491736042.39,30384,13.19,74172.8,13.75,-21.09,-21.97,0,*46
1491736043.65,30385,13.19,74174.0,13.75,-20.15,-21.03,0,*46
1491736044.88,30386,13.19,74174.3,13.75,-20.49,-21.39,0,*45
1491736046.1,30387,13.19,74172.3,13.79,-20.29,-21.33,0,*44
1491736047.37,30388,13.19,74174.8,13.77,-20.89,-21.83,0,*44
1491736048.59,30389,13.19,74176.0,13.79,-20.29,-21.23,0,*4B
1491736049.83,30390,13.19,74172.3,13.79,-20.99,-21.93,0,*43
1491736051.06,30391,13.19,74174.3,13.79,-20.69,-21.67,0,*46
1491736052.32,30392,13.19,74172.3,13.81,-20.89,-21.83,0,*46
1491736053.55,30393,13.19,74178.5,13.81,-21.13,-22.11,0,*4D
1491736054.8,30394,13.19,74172.5,13.81,-20.39,-21.33,0,*40
1491736056.06,30395,13.19,74176.5,13.85,-20.05,-20.99,0,*4B
1491736057.31,30396,13.19,74174.3,13.81,-20.39,-21.33,0,*42
1491736058.54,30397,13.19,74172.3,13.85,-21.63,-22.67,0,*4B
1491736059.77,30398,13.19,74178.3,13.81,-21.77,-22.87,0,*4B
1491736061.03,30399,13.19,74172.8,13.85,-22.03,-23.19,0,*48
1491736062.28,30400,13.19,74178.8,13.85,-22.11,-23.19,0,*4C
1491736063.54,30401,13.19,74174.8,13.81,-21.83,-22.87,0,*47
1491736064.77,30402,13.19,74172.0,13.79,-22.17,-23.39,0,*49
1491736066.0,30403,13.19,74174.0,13.79,-22.47,-23.59,0,*4B
1491736067.21,30404,13.19,74176.5,13.79,-22.41,-23.39,0,*4C
1491736068.44,30405,13.19,74174.0,13.77,-22.11,-23.13,0,*4E
1491736069.67,30406,13.19,74174.3,13.77,-22.03,-23.09,0,*45
1491736070.91,30407,13.19,74178.3,13.75,-22.37,-23.33,0,*48
1491736072.16,30408,13.19,74176.5,13.73,-22.27,-23.29,0,*4B
1491736073.4,30409,13.19,74174.0,13.75,-22.57,-23.69,0,*4F
1491736074.66,30410,13.19,74174.8,13.73,-22.53,-23.49,0,*47
1491736075.91,30411,13.19,74176.0,13.73,-22.83,-23.95,0,*4A
1491736077.14,30412,13.19,74174.0,13.71,-22.27,-23.33,0,*49
1491736078.42,30413,13.19,74172.0,13.69,-21.83,-22.77,0,*4D
1491736079.68,30414,13.19,74172.5,13.69,-22.63,-23.85,0,*4B
1491736080.91,30415,13.19,74174.5,13.71,-22.57,-23.69,0,*46
1491736082.19,30416,13.19,74174.5,13.69,-20.53,-21.33,0,*47
1491736083.4,30417,13.19,74172.5,13.71,-21.93,-22.93,0,*4B
1491736084.66,30418,13.19,74174.8,13.69,-21.27,-22.11,0,*48
1491736085.9,30419,13.19,74176.8,13.69,-21.93,-22.93,0,*4C
1491736087.18,30420,13.19,74172.0,13.69,-22.47,-23.53,0,*41
1491736088.44,30421,13.19,74172.0,13.69,-20.83,-21.77,0,*4E
1491736089.69,30422,13.19,74172.3,13.71,-21.03,-21.97,0,*43
1491736090.97,30423,13.19,74174.0,13.69,-20.83,-21.67,0,*4D
1491736092.18,30424,13.19,74174.3,13.71,-21.17,-22.11,0,*4D
1491736093.44,30425,13.19,74174.0,13.73,-21.23,-22.27,0,*4C
1491736094.7,30426,13.19,74174.0,13.69,-21.33,-22.07,0,*47